Location: Newark
(9.1167°S, 159.8667°E)
Time: 11:53:05
(UTC+00:00)

Envisat - Pass Details

Date: 30 September 2019
Orbit: 764 x 766 km, 98.1° (Epoch: 19 October)

Event Time Altitude Azimuth Distance (km) Brightness Sun altitude
Rises 07:54:58 0° 166° (SSE) 3,240 6.2 -10.5°
Reaches altitude 10° 07:57:17 10° 165° (SSE) 2,310 5.4 -11.0°
Maximum altitude 08:02:23 80° 78° (ENE) 781 2.9 -12.3°
Drops below altitude 10° 08:07:26 10° 351° (N) 2,292 5.5 -13.5°
Sets 08:09:44 0° 350° (N) 3,213 6.3 -14.1°
